| time (UTC) | temp F | wind direction | speed MPH | gust MPH | rain 1hr in | rain 24hr in | rain mn in | humidity % | barometer mb |
| 20260831234212 | 64 | 0 | 0.0 | 0.0 | 0.00 | 0.00 | 0.00 | 77 | 1022.2 |
| 20260831233707 | 64 | 0 | 0.0 | 0.0 | 0.00 | 0.00 | 0.00 | 77 | 1022.2 |
| 20260831233214 | 64 | 0 | 0.0 | 0.0 | 0.00 | 0.00 | 0.00 | 77 | 1022.2 |
| 20260831232715 | 64 | 0 | 0.0 | 0.0 | 0.00 | 0.00 | 0.00 | 77 | 1022.3 |
| 20260831232211 | 64 | 0 | 0.0 | 0.0 | 0.00 | 0.00 | 0.00 | 77 | 1022.3 |
| 20260831231712 | 64 | 0 | 0.0 | 0.0 | 0.00 | 0.00 | 0.00 | 77 | 1022.3 |
| 20260831230240 | 64 | 0 | 0.0 | 0.0 | 0.00 | 0.00 | 0.00 | 77 | 1022.4 |
| 20260831225719 | 64 | 0 | 0.0 | 0.0 | 0.00 | 0.00 | 0.00 | 77 | 1022.3 |
| 20260831225217 | 64 | 0 | 0.0 | 0.0 | 0.00 | 0.00 | 0.00 | 77 | 1022.4 |
| 20260831224717 | 64 | 0 | 0.0 | 1.0 | 0.00 | 0.00 | 0.00 | 77 | 1022.4 |
| 20260831223716 | 65 | 0 | 0.0 | 1.0 | 0.00 | 0.00 | 0.00 | 76 | 1022.4 |
| 20260831223213 | 65 | 225 | 0.0 | 0.0 | 0.00 | 0.00 | 0.00 | 76 | 1022.5 |
| 20260831222714 | 65 | 0 | 0.0 | 0.0 | 0.00 | 0.00 | 0.00 | 76 | 1022.4 |
| 20260831222214 | 65 | 0 | 0.0 | 0.0 | 0.00 | 0.00 | 0.00 | 75 | 1022.4 |
| 20260831221711 | 65 | 0 | 0.0 | 0.0 | 0.00 | 0.00 | 0.00 | 75 | 1022.3 |
| 20260831221206 | 65 | 0 | 0.0 | 0.0 | 0.00 | 0.00 | 0.00 | 76 | 1022.3 |
| 20260831220706 | 65 | 0 | 0.0 | 0.0 | 0.00 | 0.00 | 0.00 | 75 | 1022.3 |
| 20260831220207 | 65 | 0 | 0.0 | 0.0 | 0.00 | 0.00 | 0.00 | 75 | 1022.4 |
| 20260831215208 | 66 | 0 | 0.0 | 0.0 | 0.00 | 0.00 | 0.00 | 75 | 1022.3 |
| 20260831214708 | 66 | 0 | 0.0 | 0.0 | 0.00 | 0.00 | 0.00 | 74 | 1022.2 |
| 20260831213716 | 66 | 0 | 0.0 | 0.0 | 0.00 | 0.00 | 0.00 | 75 | 1022.2 |
| 20260831213215 | 66 | 0 | 0.0 | 0.0 | 0.00 | 0.00 | 0.00 | 74 | 1022.1 |
| 20260831212712 | 66 | 0 | 0.0 | 0.0 | 0.00 | 0.00 | 0.00 | 74 | 1022.2 |
| 20260831212217 | 67 | 0 | 0.0 | 0.0 | 0.00 | 0.00 | 0.00 | 73 | 1022.2 |
| 20260831211712 | 67 | 0 | 0.0 | 0.0 | 0.00 | 0.00 | 0.00 | 73 | 1022.2 |
| 20260831211214 | 67 | 0 | 0.0 | 0.0 | 0.00 | 0.00 | 0.00 | 73 | 1022.1 |
| 20260831210217 | 67 | 0 | 0.0 | 0.0 | 0.00 | 0.00 | 0.00 | 72 | 1022.1 |
| 20260831205706 | 68 | 0 | 0.0 | 0.0 | 0.00 | 0.00 | 0.00 | 72 | 1022.2 |
| 20260831205210 | 68 | 0 | 0.0 | 0.0 | 0.00 | 0.00 | 0.00 | 71 | 1022.2 |
| 20260831204715 | 68 | 0 | 0.0 | 0.0 | 0.00 | 0.00 | 0.00 | 71 | 1022.2 |
| 20260831204218 | 68 | 0 | 0.0 | 0.0 | 0.00 | 0.00 | 0.00 | 71 | 1022.1 |
| 20260831203708 | 69 | 0 | 0.0 | 0.0 | 0.00 | 0.00 | 0.00 | 70 | 1022.0 |
| 20260831203216 | 69 | 0 | 0.0 | 0.0 | 0.00 | 0.00 | 0.00 | 70 | 1022.1 |
| 20260831202205 | 69 | 0 | 0.0 | 0.0 | 0.00 | 0.00 | 0.00 | 69 | 1022.0 |
| 20260831201717 | 70 | 0 | 0.0 | 0.0 | 0.00 | 0.00 | 0.00 | 68 | 1021.8 |
| 20260831201218 | 70 | 0 | 0.0 | 0.0 | 0.00 | 0.00 | 0.00 | 68 | 1021.8 |
| 20260831200204 | 71 | 0 | 0.0 | 0.0 | 0.00 | 0.00 | 0.00 | 67 | 1021.8 |
| 20260831195714 | 71 | 0 | 0.0 | 0.0 | 0.00 | 0.00 | 0.00 | 67 | 1021.7 |
| 20260831195218 | 71 | 0 | 0.0 | 2.0 | 0.00 | 0.00 | 0.00 | 66 | 1021.6 |
| 20260831194717 | 72 | 0 | 0.0 | 2.0 | 0.00 | 0.00 | 0.00 | 65 | 1021.7 |
| 20260831194208 | 72 | 0 | 0.0 | 2.0 | 0.00 | 0.00 | 0.00 | 65 | 1021.6 |
| 20260831193706 | 72 | 171 | 0.0 | 2.0 | 0.00 | 0.00 | 0.00 | 65 | 1021.6 |
| 20260831192714 | 72 | 209 | 0.0 | 4.0 | 0.00 | 0.00 | 0.00 | 64 | 1021.5 |
| 20260831192216 | 73 | 212 | 1.0 | 4.0 | 0.00 | 0.00 | 0.00 | 64 | 1021.4 |
| 20260831191206 | 73 | 194 | 1.0 | 6.0 | 0.00 | 0.00 | 0.00 | 63 | 1021.3 |
| 20260831190712 | 73 | 219 | 1.0 | 7.0 | 0.00 | 0.00 | 0.00 | 63 | 1021.3 |
| 20260831190212 | 74 | 209 | 2.0 | 7.0 | 0.00 | 0.00 | 0.00 | 62 | 1021.2 |
| 20260831185713 | 74 | 217 | 2.0 | 7.0 | 0.00 | 0.00 | 0.00 | 62 | 1021.2 |
| 20260831185213 | 74 | 216 | 3.0 | 6.0 | 0.00 | 0.00 | 0.00 | 62 | 1021.1 |
| 20260831184712 | 74 | 230 | 2.0 | 6.0 | 0.00 | 0.00 | 0.00 | 61 | 1021.1 |
| 20260831184207 | 74 | 222 | 2.0 | 10.0 | 0.00 | 0.00 | 0.00 | 61 | 1021.1 |
| 20260831183707 | 75 | 226 | 2.0 | 10.0 | 0.00 | 0.00 | 0.00 | 60 | 1021.0 |
| 20260831183209 | 75 | 233 | 2.0 | 10.0 | 0.00 | 0.00 | 0.00 | 60 | 1021.0 |
| 20260831182707 | 75 | 268 | 4.0 | 10.0 | 0.00 | 0.00 | 0.00 | 59 | 1021.0 |
| 20260831182204 | 76 | 271 | 5.0 | 10.0 | 0.00 | 0.00 | 0.00 | 58 | 1021.0 |
| 20260831181706 | 76 | 264 | 5.0 | 11.0 | 0.00 | 0.00 | 0.00 | 57 | 1021.0 |
| 20260831181246 | 76 | 267 | 3.0 | 11.0 | 0.00 | 0.00 | 0.00 | 56 | 1021.0 |
| 20260831180208 | 77 | 254 | 5.0 | 11.0 | 0.00 | 0.00 | 0.00 | 55 | 1021.0 |
| 20260831175709 | 77 | 240 | 4.0 | 10.0 | 0.00 | 0.00 | 0.00 | 55 | 1021.1 |
| 20260831175219 | 77 | 285 | 2.0 | 10.0 | 0.00 | 0.00 | 0.00 | 54 | 1021.0 |
| 20260831174709 | 77 | 258 | 4.0 | 11.0 | 0.00 | 0.00 | 0.00 | 52 | 1020.9 |
| 20260831174212 | 78 | 253 | 4.0 | 13.0 | 0.00 | 0.00 | 0.00 | 51 | 1021.0 |
| 20260831173717 | 78 | 271 | 3.0 | 13.0 | 0.00 | 0.00 | 0.00 | 52 | 1021.0 |
| 20260831171718 | 78 | 239 | 4.0 | 15.0 | 0.00 | 0.00 | 0.00 | 52 | 1020.9 |
| 20260831171208 | 78 | 258 | 7.0 | 13.0 | 0.00 | 0.00 | 0.00 | 53 | 1021.0 |
| 20260831170215 | 78 | 264 | 5.0 | 12.0 | 0.00 | 0.00 | 0.00 | 52 | 1020.9 |
| 20260831165706 | 78 | 234 | 6.0 | 15.0 | 0.00 | 0.00 | 0.00 | 52 | 1020.9 |
| 20260831165215 | 78 | 236 | 4.0 | 15.0 | 0.00 | 0.00 | 0.00 | 52 | 1020.9 |
| 20260831164709 | 79 | 264 | 5.0 | 15.0 | 0.00 | 0.00 | 0.00 | 52 | 1020.9 |
| 20260831164208 | 78 | 223 | 5.0 | 13.0 | 0.00 | 0.00 | 0.00 | 52 | 1020.9 |
| 20260831163206 | 79 | 281 | 6.0 | 13.0 | 0.00 | 0.00 | 0.00 | 52 | 1021.0 |
| 20260831162716 | 79 | 261 | 3.0 | 13.0 | 0.00 | 0.00 | 0.00 | 52 | 1021.0 |
| 20260831162210 | 79 | 247 | 5.0 | 14.0 | 0.00 | 0.00 | 0.00 | 53 | 1021.0 |
| 20260831161719 | 78 | 291 | 5.0 | 14.0 | 0.00 | 0.00 | 0.00 | 53 | 1021.1 |
| 20260831161209 | 79 | 272 | 5.0 | 14.0 | 0.00 | 0.00 | 0.00 | 52 | 1021.1 |
| 20260831160709 | 79 | 247 | 6.0 | 14.0 | 0.00 | 0.00 | 0.00 | 51 | 1021.1 |
| 20260831160239 | 78 | 257 | 7.0 | 11.0 | 0.00 | 0.00 | 0.00 | 52 | 1021.3 |
| 20260831155713 | 78 | 296 | 5.0 | 11.0 | 0.00 | 0.00 | 0.00 | 52 | 1021.2 |
| 20260831155209 | 79 | 234 | 5.0 | 14.0 | 0.00 | 0.00 | 0.00 | 52 | 1021.1 |
| 20260831154715 | 79 | 285 | 4.0 | 14.0 | 0.00 | 0.00 | 0.00 | 52 | 1021.2 |
| 20260831154207 | 78 | 281 | 5.0 | 14.0 | 0.00 | 0.00 | 0.00 | 53 | 1021.2 |
| 20260831153715 | 78 | 258 | 8.0 | 12.0 | 0.00 | 0.00 | 0.00 | 54 | 1021.2 |
| 20260831153219 | 78 | 250 | 5.0 | 13.0 | 0.00 | 0.00 | 0.00 | 52 | 1021.3 |
| 20260831152710 | 79 | 303 | 3.0 | 15.0 | 0.00 | 0.00 | 0.00 | 52 | 1021.4 |
| 20260831152214 | 79 | 285 | 6.0 | 15.0 | 0.00 | 0.00 | 0.00 | 53 | 1021.4 |
| 20260831151706 | 78 | 229 | 7.0 | 15.0 | 0.00 | 0.00 | 0.00 | 55 | 1021.5 |
| 20260831151213 | 78 | 232 | 5.0 | 14.0 | 0.00 | 0.00 | 0.00 | 55 | 1021.5 |
| 20260831150715 | 78 | 278 | 5.0 | 14.0 | 0.00 | 0.00 | 0.00 | 54 | 1021.6 |
| 20260831150206 | 78 | 246 | 6.0 | 13.0 | 0.00 | 0.00 | 0.00 | 55 | 1021.6 |
| 20260831145713 | 77 | 271 | 8.0 | 13.0 | 0.00 | 0.00 | 0.00 | 56 | 1021.6 |
| 20260831144708 | 77 | 284 | 6.0 | 16.0 | 0.00 | 0.00 | 0.00 | 56 | 1021.6 |
| 20260831144213 | 77 | 285 | 6.0 | 16.0 | 0.00 | 0.00 | 0.00 | 56 | 1021.8 |
| 20260831143705 | 77 | 251 | 9.0 | 11.0 | 0.00 | 0.00 | 0.00 | 55 | 1021.7 |
| 20260831142710 | 77 | 291 | 5.0 | 11.0 | 0.00 | 0.00 | 0.00 | 56 | 1021.8 |
| 20260831142239 | 76 | 274 | 6.0 | 13.0 | 0.00 | 0.00 | 0.00 | 57 | 1021.9 |
| 20260831141713 | 76 | 267 | 6.0 | 13.0 | 0.00 | 0.00 | 0.00 | 57 | 1021.8 |
| 20260831141245 | 76 | 275 | 6.0 | 13.0 | 0.00 | 0.00 | 0.00 | 58 | 1022.0 |
| 20260831140711 | 76 | 281 | 8.0 | 13.0 | 0.00 | 0.00 | 0.00 | 59 | 1022.0 |
| 20260831140219 | 76 | 264 | 6.0 | 13.0 | 0.00 | 0.00 | 0.00 | 58 | 1022.0 |
| 20260831135717 | 76 | 270 | 7.0 | 13.0 | 0.00 | 0.00 | 0.00 | 58 | 1022.0 |
| 20260831135213 | 76 | 268 | 8.0 | 14.0 | 0.00 | 0.00 | 0.00 | 58 | 1022.0 |
| 20260831134711 | 76 | 288 | 7.0 | 14.0 | 0.00 | 0.00 | 0.00 | 59 | 1022.0 |
| 20260831133718 | 76 | 250 | 6.0 | 13.0 | 0.00 | 0.00 | 0.00 | 60 | 1022.0 |
| 20260831133209 | 75 | 264 | 4.0 | 13.0 | 0.00 | 0.00 | 0.00 | 61 | 1022.0 |
| 20260831132719 | 75 | 268 | 4.0 | 13.0 | 0.00 | 0.00 | 0.00 | 62 | 1022.0 |
| 20260831132207 | 75 | 270 | 6.0 | 13.0 | 0.00 | 0.00 | 0.00 | 62 | 1022.1 |
| 20260831131718 | 74 | 277 | 5.0 | 14.0 | 0.00 | 0.00 | 0.00 | 63 | 1022.0 |
| 20260831131214 | 74 | 229 | 5.0 | 14.0 | 0.00 | 0.00 | 0.00 | 63 | 1022.1 |
| 20260831130709 | 74 | 279 | 6.0 | 15.0 | 0.00 | 0.00 | 0.00 | 63 | 1022.1 |
| 20260831130213 | 74 | 289 | 9.0 | 18.0 | 0.00 | 0.00 | 0.00 | 63 | 1022.1 |
| 20260831124706 | 75 | 255 | 7.0 | 15.0 | 0.00 | 0.00 | 0.00 | 63 | 1022.0 |
| 20260831124220 | 75 | 244 | 6.0 | 15.0 | 0.00 | 0.00 | 0.00 | 62 | 1022.0 |
| 20260831123712 | 75 | 274 | 5.0 | 15.0 | 0.00 | 0.00 | 0.00 | 62 | 1022.1 |
| 20260831123217 | 75 | 278 | 6.0 | 15.0 | 0.00 | 0.00 | 0.00 | 63 | 1022.0 |
| 20260831122219 | 75 | 277 | 5.0 | 15.0 | 0.00 | 0.00 | 0.00 | 61 | 1021.9 |
| 20260831121707 | 76 | 264 | 6.0 | 15.0 | 0.00 | 0.00 | 0.00 | 61 | 1022.0 |
| 20260831121224 | 75 | 248 | 4.0 | 16.0 | 0.00 | 0.00 | 0.00 | 62 | 1022.1 |
| 20260831120716 | 75 | 244 | 6.0 | 16.0 | 0.00 | 0.00 | 0.00 | 62 | 1022.0 |
| 20260831120214 | 75 | 241 | 6.0 | 16.0 | 0.00 | 0.00 | 0.00 | 62 | 1022.1 |
| 20260831115718 | 75 | 247 | 8.0 | 15.0 | 0.00 | 0.00 | 0.00 | 62 | 1022.1 |
| 20260831115225 | 75 | 262 | 8.0 | 13.0 | 0.00 | 0.00 | 0.00 | 62 | 1022.1 |
| 20260831114205 | 75 | 258 | 4.0 | 15.0 | 0.00 | 0.00 | 0.00 | 60 | 1022.1 |
| 20260831113714 | 75 | 240 | 7.0 | 15.0 | 0.00 | 0.00 | 0.00 | 60 | 1022.2 |
| 20260831113212 | 74 | 255 | 6.0 | 17.0 | 0.00 | 0.00 | 0.00 | 60 | 1022.2 |
| 20260831112216 | 74 | 250 | 8.0 | 17.0 | 0.00 | 0.00 | 0.00 | 61 | 1022.3 |
| 20260831111704 | 74 | 300 | 7.0 | 14.0 | 0.00 | 0.00 | 0.00 | 63 | 1022.3 |
| 20260831111205 | 74 | 277 | 6.0 | 17.0 | 0.00 | 0.00 | 0.00 | 62 | 1022.3 |
| 20260831110718 | 74 | 251 | 5.0 | 17.0 | 0.00 | 0.00 | 0.00 | 63 | 1022.4 |
| 20260831110214 | 74 | 286 | 8.0 | 17.0 | 0.00 | 0.00 | 0.00 | 64 | 1022.3 |
| 20260831105718 | 73 | 267 | 7.0 | 13.0 | 0.00 | 0.00 | 0.00 | 65 | 1022.4 |
| 20260831105215 | 73 | 288 | 4.0 | 13.0 | 0.00 | 0.00 | 0.00 | 65 | 1022.4 |
| 20260831104710 | 73 | 293 | 7.0 | 13.0 | 0.00 | 0.00 | 0.00 | 67 | 1022.3 |
| 20260831104208 | 72 | 278 | 6.0 | 13.0 | 0.00 | 0.00 | 0.00 | 67 | 1022.4 |
| 20260831103713 | 72 | 262 | 5.0 | 13.0 | 0.00 | 0.00 | 0.00 | 67 | 1022.5 |
| 20260831102708 | 72 | 268 | 4.0 | 13.0 | 0.00 | 0.00 | 0.00 | 67 | 1022.4 |
| 20260831101714 | 72 | 1 | 4.0 | 17.0 | 0.00 | 0.00 | 0.00 | 70 | 1022.4 |
| 20260831100707 | 72 | 267 | 7.0 | 13.0 | 0.00 | 0.00 | 0.00 | 69 | 1022.4 |
| 20260831100214 | 72 | 274 | 7.0 | 13.0 | 0.00 | 0.00 | 0.00 | 69 | 1022.4 |
| 20260831094712 | 73 | 251 | 6.0 | 11.0 | 0.00 | 0.00 | 0.00 | 68 | 1022.3 |
| 20260831093706 | 72 | 272 | 5.0 | 9.0 | 0.00 | 0.00 | 0.00 | 68 | 1022.2 |
| 20260831093211 | 72 | 278 | 4.0 | 11.0 | 0.00 | 0.00 | 0.00 | 69 | 1022.3 |
| 20260831092706 | 72 | 323 | 4.0 | 14.0 | 0.00 | 0.00 | 0.00 | 70 | 1022.2 |
| 20260831092211 | 72 | 315 | 4.0 | 14.0 | 0.00 | 0.00 | 0.00 | 69 | 1022.3 |
| 20260831091715 | 72 | 282 | 5.0 | 14.0 | 0.00 | 0.00 | 0.00 | 69 | 1022.2 |
| 20260831090715 | 72 | 274 | 6.0 | 9.0 | 0.00 | 0.00 | 0.00 | 70 | 1022.2 |
| 20260831090208 | 72 | 285 | 4.0 | 10.0 | 0.00 | 0.00 | 0.00 | 71 | 1022.1 |
| 20260831085709 | 71 | 257 | 4.0 | 12.0 | 0.00 | 0.00 | 0.00 | 71 | 1022.1 |
| 20260831085212 | 71 | 322 | 6.0 | 12.0 | 0.00 | 0.00 | 0.00 | 72 | 1022.0 |
| 20260831084710 | 71 | 272 | 4.0 | 12.0 | 0.00 | 0.00 | 0.00 | 72 | 1021.9 |
| 20260831084206 | 71 | 275 | 6.0 | 12.0 | 0.00 | 0.00 | 0.00 | 73 | 1022.0 |
| 20260831083713 | 70 | 0 | 5.0 | 12.0 | 0.00 | 0.00 | 0.00 | 73 | 1021.9 |
| 20260831083205 | 70 | 282 | 5.0 | 15.0 | 0.00 | 0.00 | 0.00 | 73 | 1021.9 |
| 20260831082709 | 70 | 295 | 6.0 | 15.0 | 0.00 | 0.00 | 0.00 | 73 | 1021.8 |
| 20260831082210 | 70 | 292 | 5.0 | 15.0 | 0.00 | 0.00 | 0.00 | 74 | 1021.9 |
| 20260831081219 | 70 | 248 | 6.0 | 15.0 | 0.00 | 0.00 | 0.00 | 74 | 1021.8 |
| 20260831080720 | 70 | 265 | 6.0 | 15.0 | 0.00 | 0.00 | 0.00 | 73 | 1021.8 |
| 20260831080207 | 70 | 258 | 4.0 | 15.0 | 0.00 | 0.00 | 0.00 | 73 | 1021.8 |
| 20260831075705 | 70 | 278 | 8.0 | 15.0 | 0.00 | 0.00 | 0.00 | 74 | 1021.6 |
| 20260831075218 | 70 | 262 | 8.0 | 13.0 | 0.00 | 0.00 | 0.00 | 73 | 1021.6 |
| 20260831074705 | 70 | 284 | 6.0 | 12.0 | 0.00 | 0.00 | 0.00 | 73 | 1021.5 |
| 20260831073209 | 70 | 248 | 5.0 | 11.0 | 0.00 | 0.00 | 0.00 | 74 | 1021.4 |
| 20260831072709 | 70 | 270 | 4.0 | 14.0 | 0.00 | 0.00 | 0.00 | 73 | 1021.4 |
| 20260831072211 | 70 | 306 | 5.0 | 14.0 | 0.00 | 0.00 | 0.00 | 74 | 1021.4 |
| 20260831071709 | 70 | 270 | 6.0 | 14.0 | 0.00 | 0.00 | 0.00 | 74 | 1021.4 |
| 20260831070710 | 70 | 222 | 6.0 | 13.0 | 0.00 | 0.00 | 0.00 | 73 | 1021.3 |
| 20260831070205 | 70 | 264 | 6.0 | 12.0 | 0.00 | 0.00 | 0.00 | 74 | 1021.3 |
| 20260831065715 | 70 | 275 | 6.0 | 14.0 | 0.00 | 0.00 | 0.00 | 73 | 1021.1 |
| 20260831065218 | 70 | 278 | 5.0 | 14.0 | 0.00 | 0.00 | 0.00 | 73 | 1021.2 |
| 20260831064718 | 70 | 274 | 4.0 | 14.0 | 0.00 | 0.00 | 0.00 | 73 | 1021.2 |
| 20260831064210 | 70 | 289 | 5.0 | 12.0 | 0.00 | 0.00 | 0.00 | 73 | 1021.2 |
| 20260831063705 | 70 | 279 | 5.0 | 12.0 | 0.00 | 0.00 | 0.00 | 73 | 1021.1 |
| 20260831062712 | 70 | 267 | 6.0 | 13.0 | 0.00 | 0.00 | 0.00 | 73 | 1021.1 |
| 20260831062206 | 70 | 264 | 4.0 | 13.0 | 0.00 | 0.00 | 0.00 | 73 | 1021.1 |
| 20260831061713 | 70 | 272 | 6.0 | 11.0 | 0.00 | 0.00 | 0.00 | 73 | 1021.1 |
| 20260831061217 | 70 | 281 | 4.0 | 11.0 | 0.00 | 0.00 | 0.00 | 72 | 1021.1 |
| 20260831060705 | 70 | 291 | 4.0 | 11.0 | 0.00 | 0.00 | 0.00 | 72 | 1021.0 |
| 20260831060213 | 70 | 274 | 5.0 | 10.0 | 0.00 | 0.00 | 0.00 | 72 | 1021.0 |
| 20260831055708 | 70 | 264 | 4.0 | 10.0 | 0.00 | 0.00 | 0.00 | 73 | 1021.1 |
| 20260831055214 | 70 | 296 | 4.0 | 10.0 | 0.00 | 0.00 | 0.00 | 73 | 1021.0 |
| 20260831054731 | 69 | 272 | 3.0 | 10.0 | 0.00 | 0.00 | 0.00 | 73 | 1020.9 |
| 20260831054211 | 69 | 278 | 2.0 | 10.0 | 0.00 | 0.00 | 0.00 | 73 | 1020.9 |
| 20260831053710 | 69 | 264 | 5.0 | 8.0 | 0.00 | 0.00 | 0.00 | 73 | 1020.9 |
| 20260831053215 | 69 | 293 | 2.0 | 8.0 | 0.00 | 0.00 | 0.00 | 73 | 1020.8 |
| 20260831052708 | 69 | 268 | 3.0 | 8.0 | 0.00 | 0.00 | 0.00 | 73 | 1020.8 |
| 20260831052219 | 69 | 255 | 4.0 | 9.0 | 0.00 | 0.00 | 0.00 | 73 | 1020.8 |
| 20260831051710 | 69 | 209 | 5.0 | 9.0 | 0.00 | 0.00 | 0.00 | 73 | 1020.8 |
| 20260831051212 | 70 | 312 | 2.0 | 9.0 | 0.00 | 0.00 | 0.00 | 73 | 1020.7 |
| 20260831050716 | 70 | 281 | 5.0 | 11.0 | 0.00 | 0.00 | 0.00 | 73 | 1020.8 |
| 20260831050246 | 70 | 236 | 4.0 | 11.0 | 0.00 | 0.00 | 0.00 | 73 | 1020.7 |
| 20260831045711 | 70 | 251 | 3.0 | 12.0 | 0.00 | 0.00 | 0.00 | 73 | 1020.7 |
| 20260831045207 | 70 | 265 | 4.0 | 13.0 | 0.00 | 0.00 | 0.00 | 73 | 1020.7 |
| 20260831044207 | 70 | 254 | 4.0 | 13.0 | 0.00 | 0.00 | 0.00 | 73 | 1020.8 |
| 20260831043712 | 70 | 246 | 7.0 | 13.0 | 0.00 | 0.00 | 0.00 | 73 | 1020.7 |
| 20260831043211 | 70 | 262 | 6.0 | 13.0 | 0.00 | 0.00 | 0.00 | 73 | 1020.7 |
| 20260831042718 | 70 | 226 | 6.0 | 11.0 | 0.00 | 0.00 | 0.00 | 73 | 1020.7 |
| 20260831042211 | 70 | 236 | 5.0 | 11.0 | 0.00 | 0.00 | 0.00 | 74 | 1020.7 |
| 20260831041705 | 70 | 217 | 4.0 | 9.0 | 0.00 | 0.00 | 0.00 | 74 | 1020.7 |
| 20260831041216 | 70 | 250 | 4.0 | 10.0 | 0.00 | 0.00 | 0.00 | 74 | 1020.7 |
| 20260831040719 | 71 | 285 | 2.0 | 11.0 | 0.00 | 0.00 | 0.00 | 74 | 1020.7 |
| 20260831040209 | 71 | 282 | 4.0 | 11.0 | 0.00 | 0.00 | 0.00 | 74 | 1020.6 |
| 20260831035710 | 71 | 246 | 4.0 | 11.0 | 0.00 | 0.00 | 0.00 | 74 | 1020.7 |
| 20260831035207 | 71 | 264 | 6.0 | 9.0 | 0.00 | 0.00 | 0.00 | 74 | 1020.7 |
| 20260831034717 | 71 | 271 | 4.0 | 8.0 | 0.00 | 0.00 | 0.00 | 75 | 1020.7 |
| 20260831034219 | 71 | 284 | 4.0 | 8.0 | 0.00 | 0.00 | 0.00 | 75 | 1020.7 |
| 20260831033707 | 71 | 295 | 2.0 | 7.0 | 0.00 | 0.00 | 0.00 | 75 | 1020.7 |
| 20260831033210 | 71 | 288 | 3.0 | 7.0 | 0.00 | 0.00 | 0.00 | 75 | 1020.7 |
| 20260831032706 | 71 | 278 | 3.0 | 9.0 | 0.00 | 0.00 | 0.00 | 74 | 1020.7 |
| 20260831032215 | 71 | 272 | 2.0 | 10.0 | 0.00 | 0.00 | 0.00 | 75 | 1020.6 |
| 20260831031719 | 71 | 295 | 2.0 | 10.0 | 0.00 | 0.00 | 0.00 | 74 | 1020.7 |
| 20260831031218 | 71 | 244 | 3.0 | 10.0 | 0.00 | 0.00 | 0.00 | 74 | 1020.7 |
| 20260831030705 | 71 | 254 | 4.0 | 7.0 | 0.00 | 0.00 | 0.00 | 74 | 1020.6 |
| 20260831030211 | 71 | 292 | 2.0 | 9.0 | 0.00 | 0.00 | 0.00 | 74 | 1020.7 |
| 20260831025714 | 71 | 293 | 1.0 | 11.0 | 0.00 | 0.00 | 0.00 | 73 | 1020.6 |
| 20260831024707 | 71 | 277 | 4.0 | 12.0 | 0.00 | 0.00 | 0.00 | 72 | 1020.6 |
| 20260831024217 | 72 | 244 | 4.0 | 12.0 | 0.00 | 0.00 | 0.00 | 71 | 1020.7 |
| 20260831023717 | 72 | 260 | 6.0 | 12.0 | 0.00 | 0.00 | 0.00 | 70 | 1020.6 |
| 20260831023209 | 72 | 243 | 6.0 | 11.0 | 0.00 | 0.00 | 0.00 | 70 | 1020.6 |
| 20260831022708 | 72 | 257 | 4.0 | 11.0 | 0.00 | 0.00 | 0.00 | 69 | 1020.6 |
| 20260831022207 | 72 | 277 | 5.0 | 12.0 | 0.00 | 0.00 | 0.00 | 69 | 1020.7 |
| 20260831021214 | 72 | 289 | 6.0 | 14.0 | 0.00 | 0.00 | 0.00 | 70 | 1020.7 |
| 20260831020712 | 72 | 257 | 6.0 | 14.0 | 0.00 | 0.00 | 0.00 | 70 | 1020.7 |
| 20260831020206 | 72 | 260 | 5.0 | 14.0 | 0.00 | 0.00 | 0.00 | 69 | 1020.7 |
| 20260831015707 | 72 | 261 | 9.0 | 13.0 | 0.00 | 0.00 | 0.00 | 69 | 1020.7 |
| 20260831015218 | 72 | 233 | 7.0 | 12.0 | 0.00 | 0.00 | 0.00 | 69 | 1020.6 |
| 20260831014212 | 72 | 257 | 5.0 | 11.0 | 0.00 | 0.00 | 0.00 | 70 | 1020.7 |
| 20260831012707 | 72 | 274 | 4.0 | 12.0 | 0.00 | 0.00 | 0.00 | 70 | 1020.6 |
| 20260831012216 | 72 | 240 | 5.0 | 12.0 | 0.00 | 0.00 | 0.00 | 70 | 1020.5 |
| 20260831011719 | 72 | 255 | 6.0 | 12.0 | 0.00 | 0.00 | 0.00 | 70 | 1020.6 |
| 20260831011211 | 72 | 248 | 6.0 | 11.0 | 0.00 | 0.00 | 0.00 | 70 | 1020.5 |
| 20260831010717 | 72 | 243 | 4.0 | 11.0 | 0.00 | 0.00 | 0.00 | 70 | 1020.5 |
| 20260831010216 | 72 | 247 | 4.0 | 13.0 | 0.00 | 0.00 | 0.00 | 70 | 1020.4 |
| 20260831005218 | 72 | 279 | 6.0 | 13.0 | 0.00 | 0.00 | 0.00 | 70 | 1020.3 |
| 20260831003212 | 73 | 261 | 6.0 | 13.0 | 0.00 | 0.00 | 0.00 | 70 | 1020.3 |
| 20260831002714 | 73 | 229 | 7.0 | 12.0 | 0.00 | 0.00 | 0.00 | 70 | 1020.3 |
| 20260831002223 | 73 | 258 | 6.0 | 12.0 | 0.00 | 0.00 | 0.00 | 71 | 1020.4 |
| 20260831001713 | 73 | 260 | 6.0 | 13.0 | 0.00 | 0.00 | 0.00 | 70 | 1020.4 |
| 20260831001218 | 73 | 264 | 5.0 | 13.0 | 0.00 | 0.00 | 0.00 | 71 | 1020.3 |
| 20260831000714 | 73 | 298 | 3.0 | 13.0 | 0.00 | 0.00 | 0.00 | 71 | 1020.4 |
| 20260831000206 | 73 | 247 | 7.0 | 16.0 | 0.00 | 0.00 | 0.00 | 71 | 1020.3 |
| 20260830235708 | 73 | 267 | 5.0 | 16.0 | 0.00 | 0.00 | 0.00 | 71 | 1020.4 |
| 20260830235218 | 73 | 250 | 4.0 | 16.0 | 0.00 | 0.00 | 0.00 | 71 | 1020.4 |
| 20260830234709 | 73 | 257 | 7.0 | 13.0 | 0.00 | 0.00 | 0.00 | 71 | 1020.3 |